Location: Chaumontel
(49.1247°N, 2.4324°E)
Time: 07:20:03
(UTC+00:00)

IRIDIUM 103 - Pass Details

Date: 21 May 2025
Orbit: 775 x 780 km, 86.4° (Epoch: 20 June)

Event Time Altitude Azimuth Distance (km) Brightness Sun altitude
Exits shadow 01:28:18 29° 218° (SW) 1,413 5.1 -17.1°
Maximum altitude 01:30:44 51° 279° (W) 983 4.7 -16.9°
Drops below altitude 10° 01:35:51 10° 355° (N) 2,344 7.7 -16.5°
Sets 01:38:17 0° 1° (N) 3,276 8.7 -16.4°
